| time (UTC) | temp F | wind direction | speed MPH | gust MPH | rain 1hr in | rain 24hr in | rain mn in | humidity % | barometer mb |
| 20260906224556 | 69 | 331 | 2.0 | 4.0 | 0.00 | 0.00 | 0.00 | 83 | 1019.9 |
| 20260906223131 | 68 | 333 | 2.0 | 3.0 | 0.00 | 0.00 | 0.00 | 85 | 1019.9 |
| 20260906221602 | 68 | 341 | 0.0 | 3.0 | 0.00 | 0.00 | 0.00 | 85 | 1019.8 |
| 20260906220130 | 68 | 341 | 1.0 | 2.0 | 0.00 | 0.00 | 0.00 | 85 | 1019.9 |
| 20260906214601 | 69 | 341 | 0.0 | 2.0 | 0.00 | 0.00 | 0.00 | 84 | 1019.8 |
| 20260906213139 | 69 | 341 | 1.0 | 2.0 | 0.00 | 0.00 | 0.00 | 84 | 1019.8 |
| 20260906211555 | 69 | 341 | 1.0 | 2.0 | 0.00 | 0.00 | 0.00 | 83 | 1019.7 |
| 20260906210128 | 70 | 341 | 2.0 | 4.0 | 0.00 | 0.00 | 0.00 | 82 | 1019.7 |
| 20260906204601 | 70 | 219 | 1.0 | 3.0 | 0.00 | 0.00 | 0.00 | 82 | 1019.6 |
| 20260906203140 | 70 | 219 | 0.0 | 2.0 | 0.00 | 0.00 | 0.00 | 81 | 1019.7 |
| 20260906201558 | 70 | 219 | 1.0 | 3.0 | 0.00 | 0.00 | 0.00 | 80 | 1019.7 |
| 20260906200128 | 71 | 215 | 0.0 | 2.0 | 0.00 | 0.00 | 0.00 | 80 | 1019.6 |
| 20260906194606 | 71 | 213 | 0.0 | 2.0 | 0.00 | 0.00 | 0.00 | 80 | 1019.5 |
| 20260906193134 | 72 | 213 | 0.0 | 1.0 | 0.00 | 0.00 | 0.00 | 80 | 1019.4 |
| 20260906191602 | 72 | 213 | 0.0 | 2.0 | 0.00 | 0.00 | 0.00 | 78 | 1019.2 |
| 20260906190121 | 73 | 213 | 0.0 | 2.0 | 0.00 | 0.00 | 0.00 | 78 | 1019.0 |
| 20260906184556 | 74 | 213 | 0.0 | 2.0 | 0.00 | 0.00 | 0.00 | 76 | 1018.8 |
| 20260906183130 | 75 | 213 | 1.0 | 3.0 | 0.00 | 0.00 | 0.00 | 75 | 1018.7 |
| 20260906181601 | 76 | 213 | 0.0 | 2.0 | 0.00 | 0.00 | 0.00 | 74 | 1018.5 |
| 20260906180138 | 77 | 213 | 0.0 | 1.0 | 0.00 | 0.00 | 0.00 | 73 | 1018.4 |
| 20260906174617 | 79 | 212 | 0.0 | 3.0 | 0.00 | 0.00 | 0.00 | 71 | 1018.3 |
| 20260906173129 | 80 | 211 | 1.0 | 2.0 | 0.00 | 0.00 | 0.00 | 68 | 1018.3 |
| 20260906171612 | 82 | 196 | 0.0 | 3.0 | 0.00 | 0.00 | 0.00 | 65 | 1018.3 |
| 20260906170131 | 84 | 120 | 0.0 | 2.0 | 0.00 | 0.00 | 0.00 | 61 | 1018.2 |
| 20260906164556 | 85 | 120 | 0.0 | 4.0 | 0.00 | 0.00 | 0.00 | 59 | 1018.0 |
| 20260906163121 | 86 | 121 | 2.0 | 4.0 | 0.00 | 0.00 | 0.00 | 54 | 1018.0 |
| 20260906161621 | 86 | 133 | 2.0 | 5.0 | 0.00 | 0.00 | 0.00 | 56 | 1017.9 |
| 20260906160132 | 87 | 175 | 1.0 | 4.0 | 0.00 | 0.00 | 0.00 | 55 | 1017.9 |
| 20260906154559 | 87 | 94 | 2.0 | 4.0 | 0.00 | 0.00 | 0.00 | 53 | 1017.9 |
| 20260906153139 | 87 | 148 | 1.0 | 7.0 | 0.00 | 0.00 | 0.00 | 53 | 1017.9 |
| 20260906151557 | 87 | 111 | 4.0 | 7.0 | 0.00 | 0.00 | 0.00 | 54 | 1018.1 |
| 20260906150132 | 87 | 142 | 2.0 | 6.0 | 0.00 | 0.00 | 0.00 | 55 | 1018.1 |
| 20260906144557 | 87 | 167 | 3.0 | 6.0 | 0.00 | 0.00 | 0.00 | 55 | 1018.1 |
| 20260906143134 | 88 | 173 | 3.0 | 9.0 | 0.00 | 0.00 | 0.00 | 54 | 1018.1 |
| 20260906141620 | 88 | 75 | 0.0 | 7.0 | 0.00 | 0.00 | 0.00 | 53 | 1018.2 |
| 20260906140120 | 87 | 164 | 4.0 | 8.0 | 0.00 | 0.00 | 0.00 | 54 | 1018.3 |
| 20260906134557 | 87 | 70 | 3.0 | 6.0 | 0.00 | 0.00 | 0.00 | 54 | 1018.4 |
| 20260906133130 | 87 | 165 | 5.0 | 10.0 | 0.00 | 0.00 | 0.00 | 55 | 1018.4 |
| 20260906131607 | 87 | 144 | 3.0 | 6.0 | 0.00 | 0.00 | 0.00 | 54 | 1018.5 |
| 20260906130142 | 87 | 122 | 4.0 | 9.0 | 0.00 | 0.00 | 0.00 | 54 | 1018.6 |
| 20260906124556 | 86 | 72 | 3.0 | 11.0 | 0.00 | 0.00 | 0.00 | 56 | 1018.7 |
| 20260906123127 | 86 | 103 | 5.0 | 10.0 | 0.00 | 0.00 | 0.00 | 55 | 1018.8 |
| 20260906121557 | 86 | 119 | 3.0 | 8.0 | 0.00 | 0.00 | 0.00 | 57 | 1018.8 |
| 20260906120128 | 86 | 94 | 5.0 | 9.0 | 0.00 | 0.00 | 0.00 | 56 | 1018.8 |
| 20260906114558 | 86 | 75 | 5.0 | 9.0 | 0.00 | 0.00 | 0.00 | 58 | 1018.9 |
| 20260906113129 | 86 | 184 | 5.0 | 10.0 | 0.00 | 0.00 | 0.00 | 60 | 1019.0 |
| 20260906111557 | 86 | 109 | 3.0 | 10.0 | 0.00 | 0.00 | 0.00 | 59 | 1019.0 |
| 20260906110133 | 85 | 137 | 8.0 | 11.0 | 0.00 | 0.00 | 0.00 | 59 | 1019.2 |
| 20260906104557 | 84 | 30 | 2.0 | 11.0 | 0.00 | 0.00 | 0.00 | 64 | 1019.2 |
| 20260906103123 | 84 | 26 | 2.0 | 9.0 | 0.00 | 0.00 | 0.00 | 57 | 1019.2 |
| 20260906101605 | 85 | 113 | 6.0 | 12.0 | 0.00 | 0.00 | 0.00 | 57 | 1019.4 |
| 20260906100134 | 84 | 84 | 6.0 | 13.0 | 0.00 | 0.00 | 0.00 | 55 | 1019.5 |
| 20260906094604 | 84 | 117 | 4.0 | 11.0 | 0.00 | 0.00 | 0.00 | 56 | 1019.5 |
| 20260906093122 | 83 | 36 | 7.0 | 11.0 | 0.00 | 0.00 | 0.00 | 56 | 1019.6 |
| 20260906091556 | 83 | 131 | 3.0 | 7.0 | 0.00 | 0.00 | 0.00 | 56 | 1019.7 |
| 20260906090131 | 82 | 99 | 6.0 | 13.0 | 0.00 | 0.00 | 0.00 | 58 | 1019.7 |
| 20260906084559 | 81 | 72 | 2.0 | 11.0 | 0.00 | 0.00 | 0.00 | 57 | 1019.6 |
| 20260906083138 | 81 | 80 | 2.0 | 9.0 | 0.00 | 0.00 | 0.00 | 57 | 1019.6 |
| 20260906081558 | 81 | 130 | 6.0 | 11.0 | 0.00 | 0.00 | 0.00 | 58 | 1019.5 |
| 20260906080125 | 79 | 75 | 5.0 | 8.0 | 0.00 | 0.00 | 0.00 | 59 | 1019.4 |
| 20260906074557 | 78 | 342 | 2.0 | 4.0 | 0.00 | 0.00 | 0.00 | 61 | 1019.3 |
| 20260906073134 | 77 | 360 | 1.0 | 4.0 | 0.00 | 0.00 | 0.00 | 65 | 1019.2 |
| 20260906071557 | 75 | 10 | 2.0 | 4.0 | 0.00 | 0.00 | 0.00 | 68 | 1019.1 |
| 20260906070122 | 74 | 5 | 2.0 | 4.0 | 0.00 | 0.00 | 0.00 | 69 | 1019.2 |
| 20260906064557 | 73 | 34 | 2.0 | 5.0 | 0.00 | 0.00 | 0.00 | 70 | 1019.0 |
| 20260906063128 | 71 | 14 | 2.0 | 3.0 | 0.00 | 0.00 | 0.00 | 73 | 1018.9 |
| 20260906061559 | 70 | 355 | 2.0 | 4.0 | 0.00 | 0.00 | 0.00 | 75 | 1018.8 |
| 20260906060137 | 68 | 338 | 2.0 | 4.0 | 0.00 | 0.00 | 0.00 | 76 | 1018.7 |
| 20260906054611 | 67 | 328 | 2.0 | 5.0 | 0.00 | 0.00 | 0.00 | 78 | 1018.5 |
| 20260906053124 | 66 | 351 | 2.0 | 5.0 | 0.00 | 0.00 | 0.00 | 80 | 1018.4 |
| 20260906051559 | 65 | 5 | 2.0 | 5.0 | 0.00 | 0.00 | 0.00 | 80 | 1018.3 |
| 20260906050133 | 65 | 338 | 2.0 | 4.0 | 0.00 | 0.00 | 0.00 | 80 | 1018.1 |
| 20260906044557 | 65 | 323 | 3.0 | 4.0 | 0.00 | 0.00 | 0.00 | 79 | 1017.9 |
| 20260906043122 | 66 | 331 | 2.0 | 4.0 | 0.00 | 0.00 | 0.00 | 79 | 1017.7 |
| 20260906041559 | 66 | 299 | 2.0 | 3.0 | 0.00 | 0.00 | 0.00 | 80 | 1017.5 |
| 20260906040126 | 66 | 282 | 1.0 | 3.0 | 0.00 | 0.00 | 0.00 | 79 | 1017.4 |
| 20260906034605 | 67 | 288 | 0.0 | 4.0 | 0.00 | 0.00 | 0.00 | 78 | 1017.3 |
| 20260906033136 | 67 | 325 | 1.0 | 5.0 | 0.00 | 0.00 | 0.00 | 78 | 1017.1 |
| 20260906031558 | 67 | 343 | 3.0 | 6.0 | 0.00 | 0.00 | 0.00 | 79 | 1017.0 |
| 20260906030123 | 66 | 306 | 1.0 | 3.0 | 0.00 | 0.00 | 0.00 | 81 | 1017.0 |
| 20260906024558 | 66 | 269 | 1.0 | 4.0 | 0.00 | 0.00 | 0.00 | 80 | 1016.8 |
| 20260906023133 | 68 | 344 | 0.0 | 0.0 | 0.00 | 0.00 | 0.00 | 77 | 1016.6 |
| 20260906021601 | 69 | 305 | 0.0 | 4.0 | 0.00 | 0.00 | 0.00 | 75 | 1016.5 |
| 20260906020137 | 69 | 111 | 1.0 | 3.0 | 0.00 | 0.00 | 0.00 | 75 | 1016.6 |
| 20260906014558 | 69 | 102 | 2.0 | 6.0 | 0.00 | 0.00 | 0.00 | 74 | 1016.6 |
| 20260906013124 | 68 | 331 | 3.0 | 6.0 | 0.00 | 0.00 | 0.00 | 76 | 1016.7 |
| 20260906011557 | 68 | 263 | 2.0 | 4.0 | 0.00 | 0.00 | 0.00 | 77 | 1016.7 |
| 20260906010148 | 67 | 319 | 3.0 | 5.0 | 0.00 | 0.00 | 0.00 | 76 | 1016.7 |
| 20260906004615 | 67 | 213 | 1.0 | 3.0 | 0.00 | 0.00 | 0.00 | 78 | 1016.6 |
| 20260906003123 | 67 | 207 | 3.0 | 8.0 | 0.00 | 0.00 | 0.00 | 77 | 1016.5 |
| 20260906001604 | 66 | 317 | 0.0 | 2.0 | 0.00 | 0.00 | 0.00 | 79 | 1016.2 |
| 20260906000131 | 67 | 317 | 1.0 | 2.0 | 0.00 | 0.00 | 0.00 | 79 | 1016.2 |
| 20260905234557 | 67 | 317 | 1.0 | 2.0 | 0.00 | 0.00 | 0.00 | 78 | 1016.0 |
| 20260905233136 | 67 | 317 | 0.0 | 3.0 | 0.00 | 0.00 | 0.00 | 77 | 1016.1 |
| 20260905231557 | 67 | 317 | 1.0 | 3.0 | 0.00 | 0.00 | 0.00 | 77 | 1016.0 |
| 20260905230001 | 67 | 338 | 2.0 | 4.0 | 0.00 | 0.00 | 0.00 | 77 | 1016.0 |